Location: Acton
(51.4942°N, 0.2232°W)
Time: 21:56:04
(UTC+00:00)

Cosmos 1048 Rocket - Pass Details

Date: 18 September 2020
Orbit: 742 x 792 km, 74.0° (Epoch: 31 October)

Event Time Altitude Azimuth Distance (km) Brightness Sun altitude
Rises 19:22:22 0° 336° (NNW) 3,253 7.9 -12.3°
Reaches altitude 10° 19:24:47 10° 340° (NNW) 2,330 7.1 -12.6°
Maximum altitude 19:30:02 62° 61° (ENE) 877 4.1 -13.4°
Enters shadow 19:34:13 16° 140° (SE) 1,935 5.6 -14.0°
